GEFSMW_500_meanwind_024.txt.gz
Wind_Speed
36 35 35 34 34 35 36 37 36 36 36 36 37 37 38 38 39 40 41 42 43 44 45 46 49 51 54 56 57 60 62 64 66 68 69 70 71 72 72 73 73 73 73
34 33 33 33 34 35 35 36 36 36 37 38 38 39 40 41 42 43 44 45 46 47 49 52 54 56 58 60 62 65 66 68 71 73 75 75 75 75 76 77 77 77 77
31 31 32 33 33 34 34 35 36 37 39 40 41 42 43 45 46 47 48 49 50 52 55 56 59 61 62 64 67 68 70 71 72 75 77 78 78 76 75 76 76 75 74
30 32 34 33 33 33 34 35 37 38 40 42 44 45 47 48 49 51 52 54 56 58 59 61 63 64 66 68 69 70 70 70 71 71 72 72 70 68 65 63 63 62 61
33 35 35 35 34 35 35 36 39 41 44 46 47 48 50 51 53 55 56 59 61 63 64 65 66 67 68 68 68 67 66 65 64 62 61 59 57 55 53 50 47 47 47
37 38 38 38 38 38 38 38 41 44 46 48 50 51 53 54 56 58 60 62 64 65 66 66 66 66 65 64 62 60 59 57 56 54 53 51 49 47 46 45 42 41 41
41 42 41 42 42 41 40 40 43 46 48 50 52 53 55 56 58 60 62 63 65 65 65 64 62 59 57 55 54 53 52 51 50 50 49 48 46 45 44 43 41 40 39
42 44 45 45 43 41 41 42 44 46 49 51 52 54 56 58 60 61 62 63 63 62 59 55 51 49 48 48 47 47 47 48 48 49 49 47 45 45 44 42 40 39 37
38 41 44 43 41 41 42 43 44 48 50 52 53 55 57 59 60 61 63 61 58 54 49 45 43 42 42 43 44 45 47 48 49 49 49 47 45 44 43 41 40 38 35
33 34 37 39 40 40 41 43 45 49 52 53 56 58 60 60 60 61 59 54 50 45 42 40 40 40 41 43 45 47 48 49 49 49 48 47 47 45 43 41 39 37 34
37 37 38 40 40 40 41 43 47 51 53 56 59 61 61 60 60 58 52 47 44 40 38 38 39 41 44 46 48 49 50 51 50 49 48 46 45 43 40 39 37 35 33
40 39 38 39 39 40 41 45 50 53 56 59 61 61 59 59 58 52 47 42 39 37 37 39 42 45 48 50 51 52 52 51 50 48 46 45 43 40 38 36 34 32 30
43 41 39 38 39 40 43 48 52 55 58 61 61 60 59 58 53 46 41 38 37 38 39 42 45 49 51 53 53 53 52 51 48 46 43 42 40 38 35 33 31 29 27
44 42 39 37 38 42 46 50 54 58 60 61 60 58 57 54 46 41 39 38 38 40 43 47 50 53 54 54 53 52 50 48 46 43 41 39 37 34 32 30 28 26 24
42 39 36 36 39 43 48 53 56 59 60 60 57 57 54 47 41 39 38 39 41 44 48 51 53 54 54 53 51 49 47 45 42 40 38 36 33 30 28 26 25 22 20
36 33 33 36 41 46 51 55 58 59 58 57 55 54 48 42 39 38 39 42 46 49 52 54 54 54 53 52 49 47 44 41 39 37 35 32 29 26 24 22 20 19 17
35 33 34 38 44 49 53 55 56 56 56 54 53 48 42 39 38 39 42 46 49 52 53 53 53 53 52 49 46 44 41 38 36 33 30 27 24 21 19 18 16 15 14
34 35 39 42 45 49 51 52 53 53 52 51 47 42 38 37 39 42 46 49 51 52 52 53 52 51 49 47 43 41 38 35 33 30 26 23 20 17 15 14 13 11 10
35 37 39 42 45 47 48 49 50 50 48 46 41 37 36 38 41 45 47 49 51 51 51 51 50 48 46 43 40 37 34 32 30 26 23 19 16 13 11 11 10 9 7
34 36 39 41 43 45 45 46 46 46 44 40 36 35 37 40 43 45 47 48 49 49 49 48 47 44 42 39 36 33 31 29 26 23 19 16 12 9 9 9 9 8 8
33 35 38 40 41 41 41 42 43 41 37 33 33 35 38 41 43 44 45 46 47 47 47 46 44 41 38 35 33 30 27 25 22 19 16 12 7 7 8 10 11 11 11
30 33 35 36 37 38 39 39 37 34 31 31 33 36 39 40 42 43 43 44 44 45 45 43 41 39 36 33 30 27 24 21 18 14 10 7 4 8 11 12 13 14 14
29 31 32 33 33 35 35 33 30 28 29 31 34 37 38 39 40 41 42 42 43 43 43 41 38 36 33 30 27 24 21 17 13 9 5 2 6 11 14 15 16 17 17
26 28 29 29 31 31 29 26 25 26 29 32 35 36 37 38 38 39 40 41 42 41 40 37 34 32 30 27 24 21 17 13 8 4 1 4 10 14 16 18 19 19 18
24 25 26 27 27 25 22 21 23 26 30 32 34 36 36 36 37 37 38 39 40 39 37 34 31 30 27 24 21 17 13 8 4 1 4 8 13 16 18 20 20 20 19
21 22 23 23 20 18 17 20 23 27 30 32 34 35 35 36 36 36 37 38 38 37 35 33 31 28 25 21 17 13 8 5 4 5 7 11 15 17 20 21 21 20 19

GEFSMW_500_meanwind_030.txt.gz
Wind_Speed
23 24 26 27 27 27 27 27 28 28 29 29 29 30 32 33 34 35 35 35 36 38 40 43 45 47 49 51 52 54 56 58 59 59 60 61 62 62 63 63 64 65 66
25 26 27 28 29 29 29 30 31 33 34 35 35 36 37 38 38 39 39 39 40 42 45 48 50 51 52 53 54 56 57 57 57 58 58 58 57 58 58 59 59 60 60
26 28 29 30 30 32 33 33 35 38 39 40 40 41 41 41 40 41 42 43 44 47 50 52 53 53 53 54 55 55 55 54 54 53 52 49 48 48 49 51 52 53 54
28 30 32 32 33 34 35 37 39 42 43 44 45 45 43 42 42 43 45 46 48 51 54 56 56 55 55 55 54 52 50 49 48 46 45 45 45 45 45 44 45 47 50
31 33 34 35 36 36 37 40 42 45 46 48 48 46 44 43 43 44 47 49 52 55 58 58 58 57 55 54 52 50 48 45 44 43 42 43 44 46 47 47 47 49 50
35 36 36 37 37 38 40 42 44 45 47 48 47 44 43 42 44 46 49 52 56 59 61 60 59 57 55 53 49 47 44 43 42 42 43 44 46 48 50 51 51 52 52
38 38 38 37 37 38 40 42 43 44 45 46 45 43 42 44 46 48 51 55 58 60 60 59 57 55 53 49 46 44 42 42 42 44 46 49 51 53 54 55 55 54 53
37 38 36 35 36 37 39 41 42 43 44 44 43 43 43 45 47 50 54 57 59 59 58 56 55 52 48 45 43 42 43 44 46 48 51 53 56 58 59 59 59 57 55
34 34 33 33 34 36 39 42 44 45 45 45 44 44 44 46 49 52 56 59 59 57 56 53 51 47 44 43 43 43 45 48 51 53 56 59 60 61 61 61 61 60 57
33 34 34 34 35 38 41 43 46 48 47 46 46 45 46 48 51 55 58 59 58 56 53 50 47 45 44 43 44 46 49 53 55 58 61 62 62 62 61 61 59 58 55
33 35 36 37 38 40 43 46 49 50 49 48 47 46 47 49 54 57 58 57 55 53 50 48 45 44 44 45 47 51 54 57 60 62 62 62 62 60 58 57 54 51 49
35 36 37 39 40 43 45 48 51 51 50 49 47 47 48 52 55 56 55 54 52 50 48 45 44 44 46 48 51 54 58 60 61 62 62 60 59 56 53 50 48 46 44
39 40 41 42 44 45 48 49 51 51 49 46 45 47 50 52 53 52 52 51 50 48 46 45 45 46 49 52 55 57 59 61 62 61 59 56 53 49 47 44 43 41 39
40 41 43 44 46 47 48 49 47 45 43 43 44 47 49 50 50 50 50 49 48 46 45 45 47 49 52 55 56 58 59 60 59 57 54 50 46 43 41 39 37 36 34
43 44 44 47 47 46 48 45 43 42 43 45 46 47 48 48 48 49 49 47 45 44 45 47 50 52 54 56 57 58 58 57 54 50 47 44 41 38 36 34 32 30 27
46 46 47 47 46 46 44 43 42 43 45 45 45 46 46 47 48 48 46 45 44 45 47 49 51 53 55 56 56 56 55 53 48 44 41 39 37 34 31 29 27 24 21
49 50 50 49 47 44 44 44 44 44 43 43 44 45 46 47 46 45 44 44 45 47 49 50 52 53 54 54 54 52 50 46 42 39 37 35 33 30 26 24 21 18 15
51 51 50 48 47 45 43 42 43 42 42 42 43 44 45 45 44 44 44 45 47 48 49 50 51 52 52 51 49 47 44 40 37 35 33 31 28 25 21 18 15 12 9
52 50 48 46 45 43 41 41 41 40 41 42 43 43 43 43 43 43 45 47 48 48 49 50 50 50 49 47 45 42 39 37 34 32 29 26 22 19 16 12 9 7 5
48 47 45 44 42 40 39 38 38 39 40 41 42 41 41 41 43 44 46 46 47 47 48 48 48 46 45 43 41 38 35 33 31 28 24 20 16 13 10 6 4 4 6
41 40 40 38 36 36 35 35 36 37 39 39 39 39 40 41 43 45 45 45 46 46 46 46 45 43 41 39 37 34 31 29 26 22 18 14 10 7 4 2 5 8 10
35 34 33 31 30 30 31 32 34 35 36 36 36 38 40 42 44 44 44 43 43 43 43 43 42 41 38 36 33 30 27 24 20 16 12 8 4 1 3 7 10 12 13
28 26 24 23 24 26 28 30 32 32 32 33 36 38 40 42 42 42 42 41 41 41 41 40 39 37 35 32 28 25 22 18 15 10 6 4 3 6 9 11 14 15 15
19 18 18 19 21 24 26 27 28 29 30 33 36 38 40 40 40 40 39 38 38 37 37 36 35 33 30 26 23 20 17 14 10 5 4 5 8 11 13 15 17 17 16
13 14 15 17 19 22 23 24 25 28 31 34 36 38 38 38 38 37 36 35 34 33 33 32 30 27 25 21 19 17 13 10 7 5 7 9 12 15 16 18 18 17 15
10 11 13 16 18 20 20 22 24 28 31 34 35 36 37 37 36 35 34 32 31 31 30 29 27 23 21 18 16 14 12 10 7 8 9 12 15 16 18 18 17 16 14

GEFSMW_500_meanwind_036.txt.gz
Wind_Speed
30 29 29 29 30 30 30 30 28 27 24 22 21 20 21 22 24 25 26 28 30 31 31 32 32 34 36 38 40 43 45 46 48 49 51 52 54 56 57 58 58 58 57
31 30 30 31 33 34 34 34 33 31 28 26 24 24 25 26 27 28 29 30 32 33 34 35 35 37 39 41 44 46 48 49 51 52 53 54 56 58 57 56 55 54 52
33 32 32 33 35 36 37 37 37 35 33 31 29 28 29 29 30 30 31 32 33 34 36 37 38 40 43 44 47 49 51 53 54 54 55 56 57 58 57 55 52 49 48
36 35 35 36 37 38 38 39 38 38 37 36 35 33 34 34 35 35 36 36 37 38 40 41 42 44 46 49 51 52 54 55 56 57 57 57 57 56 54 53 51 48 46
38 38 38 39 39 40 40 41 40 40 39 39 39 38 38 39 39 40 41 41 42 44 45 45 46 49 51 52 54 56 57 58 58 58 58 57 57 55 54 52 50 49 49
39 39 39 40 40 41 42 43 43 42 41 41 41 40 41 42 43 45 45 46 48 48 49 50 51 53 55 56 57 58 58 58 58 58 58 57 56 55 54 52 52 52 53
37 37 37 37 38 40 41 42 43 42 42 41 42 42 44 45 47 48 49 50 52 52 53 54 55 56 57 58 58 59 59 58 58 58 57 57 56 55 55 55 55 56 57
33 34 34 34 34 36 37 39 39 40 40 41 42 43 45 48 50 51 52 53 54 55 56 56 56 56 57 58 59 59 59 59 58 58 57 56 56 56 56 57 59 60 61
30 30 31 31 31 32 33 35 37 38 40 41 42 44 46 49 50 51 52 54 55 55 54 53 53 55 57 58 58 58 58 58 57 57 56 55 56 57 58 60 62 64 64
29 29 29 30 30 31 32 34 36 37 39 41 42 45 47 49 51 53 54 53 52 51 51 52 53 55 57 57 58 58 57 56 56 55 55 56 57 59 61 62 64 65 66
28 28 28 29 29 31 33 34 36 38 40 41 43 46 48 51 52 51 49 49 49 50 51 52 54 55 56 56 56 56 55 55 55 56 57 58 60 61 62 63 63 63 63
29 29 29 30 31 33 35 36 37 39 41 42 44 47 49 50 50 50 49 48 49 50 51 52 54 55 55 55 55 54 54 55 56 57 58 59 61 61 61 60 58 56 54
31 32 33 34 35 36 38 39 40 42 44 45 46 48 50 51 51 51 49 48 48 49 51 52 53 53 53 53 53 54 55 56 57 58 59 60 59 58 56 53 49 47 45
34 35 36 37 38 40 41 42 43 44 45 47 48 49 51 51 50 49 48 47 48 50 51 52 52 52 52 52 53 54 56 57 58 59 58 57 55 52 48 44 42 40 38
37 38 39 40 41 43 44 45 46 47 47 48 49 51 50 49 49 48 48 48 48 49 50 50 50 51 51 52 54 55 57 57 57 55 54 51 48 44 41 38 37 35 34
42 42 43 43 44 45 47 47 48 48 48 49 49 50 51 50 49 47 47 47 48 49 49 49 49 50 52 53 55 55 56 55 53 51 48 45 42 39 36 34 32 31 28
45 45 46 46 46 46 47 48 48 47 48 49 49 50 50 48 46 46 46 47 47 47 48 48 50 51 53 54 54 53 52 51 48 45 42 39 37 34 31 29 27 24 20
45 45 45 45 45 45 46 46 46 46 49 49 49 48 46 45 45 45 45 46 46 46 48 49 51 52 52 52 51 49 47 45 43 39 36 33 30 27 25 22 19 15 12
43 42 41 41 41 42 43 43 44 48 49 47 46 45 44 42 43 44 44 45 46 47 49 50 50 50 49 48 46 44 42 39 37 34 30 26 24 21 17 14 11 7 5
40 39 37 37 38 39 41 43 45 46 45 44 43 42 41 41 42 43 44 45 47 48 49 49 48 46 44 42 40 38 36 34 31 28 24 20 16 13 10 7 4 1 1
36 35 34 34 35 38 40 43 43 42 41 40 39 39 39 40 41 43 44 46 47 47 47 46 44 41 38 36 34 32 30 28 25 21 16 12 9 6 4 2 3 4 6
30 30 31 32 34 37 39 39 39 38 37 36 36 37 38 39 41 43 45 45 45 45 43 41 39 35 33 31 29 27 25 22 17 13 9 6 3 3 5 6 7 8 8
25 26 28 30 32 34 35 33 31 30 31 32 34 36 37 40 42 43 43 43 42 41 39 36 33 30 27 26 25 23 19 15 11 7 4 4 5 7 10 11 10 10 10
23 25 26 26 25 25 24 24 26 28 29 31 34 36 38 40 41 42 41 40 38 35 32 30 27 25 23 22 20 17 14 10 6 4 5 7 9 12 12 12 11 11 10
18 18 18 18 18 19 20 22 23 26 29 32 34 37 39 39 39 38 37 35 32 29 27 24 22 20 19 17 15 12 9 6 4 6 8 11 12 13 13 12 11 11 10
11 12 13 14 15 17 18 20 23 27 30 33 35 37 37 37 36 34 31 28 25 23 22 20 18 16 15 13 10 8 6 4 6 9 11 12 13 14 13 12 12 11 10

GEFSMW_500_meanwind_042.txt.gz
Wind_Speed
33 36 36 33 31 31 31 30 31 32 33 35 37 38 39 40 39 37 34 33 32 33 34 33 35 36 38 40 41 42 44 45 47 49 50 51 53 55 56 58 59 61 62
36 40 38 36 34 34 33 32 33 34 36 38 39 40 42 43 43 40 38 37 37 37 36 37 37 39 41 42 43 45 47 49 51 52 53 54 55 57 59 61 62 63 64
40 40 41 40 38 37 35 34 35 37 39 40 42 43 45 45 44 43 41 40 40 39 38 39 41 42 44 45 46 47 50 52 53 54 56 57 58 59 61 64 65 65 66
38 38 40 40 39 37 36 35 37 38 40 42 44 46 47 47 46 45 43 43 43 42 41 41 43 45 47 48 49 50 51 52 54 56 58 59 60 60 61 63 65 66 67
35 36 36 37 37 36 35 36 37 39 41 43 44 46 47 47 46 46 45 45 44 44 43 43 45 47 49 50 51 52 53 55 56 58 59 60 61 61 62 63 65 66 67
34 33 33 34 34 34 35 37 38 39 41 43 44 45 46 46 46 46 46 46 46 45 44 45 47 49 50 51 52 53 54 55 56 57 58 60 61 62 64 65 66 67 67
34 35 34 32 32 34 35 36 38 39 40 42 43 44 45 45 45 45 45 46 46 45 46 47 49 51 52 52 52 53 54 55 56 57 59 61 62 64 65 67 68 68 67
36 35 34 31 31 33 35 36 37 38 39 41 42 43 44 44 44 44 45 45 46 47 48 50 51 51 52 53 53 53 54 55 57 58 59 61 63 65 67 68 68 68 66
29 30 32 31 32 34 35 36 37 38 39 41 42 43 43 43 44 46 46 46 48 49 51 52 52 54 55 54 53 54 55 55 57 58 60 62 64 66 68 68 69 69 67
28 28 31 31 33 33 35 37 37 38 39 41 42 42 43 44 45 46 47 48 49 51 53 54 56 57 55 54 54 55 55 56 58 60 62 64 66 67 68 69 69 69 69
33 33 32 32 33 34 36 37 38 39 40 41 42 43 45 46 47 48 49 50 52 54 55 57 58 56 55 55 55 56 56 57 58 60 62 64 66 67 68 69 69 69 69
39 36 34 33 33 35 37 38 39 41 42 43 44 46 47 48 50 51 52 53 55 56 57 58 57 56 57 55 54 54 56 58 60 61 63 64 66 67 68 68 67 66 65
37 35 35 35 36 37 39 40 42 43 45 46 47 49 50 51 53 53 54 56 57 57 59 59 60 59 57 54 54 55 57 59 60 62 64 65 66 66 65 65 63 60 57
33 35 38 40 41 42 42 44 45 46 48 49 50 51 52 53 55 56 56 57 59 61 62 62 61 58 55 53 54 56 57 59 60 62 63 64 63 63 61 57 54 50 47
46 46 46 46 46 46 46 46 47 49 50 51 52 52 53 55 55 57 58 60 62 64 62 60 56 55 53 52 54 56 57 59 60 61 61 60 59 56 52 48 44 41 37
52 52 51 50 49 48 48 48 48 49 50 51 52 52 53 55 57 58 59 61 61 61 60 55 52 51 51 52 54 56 57 58 58 58 56 54 51 47 43 40 36 34 31
51 52 51 50 48 48 47 48 48 49 49 50 51 52 53 55 57 58 59 60 60 58 53 50 49 49 50 52 54 55 55 55 54 52 49 45 42 39 36 32 29 27 24
50 50 50 49 48 48 47 47 47 47 48 49 50 51 53 55 57 58 58 57 55 52 50 48 48 49 50 51 52 52 51 49 47 44 40 36 34 32 28 24 21 18 16
47 48 48 47 47 46 45 44 44 45 45 47 49 50 53 55 55 55 54 52 50 48 46 47 47 48 49 48 48 47 45 41 38 35 32 29 27 23 20 17 14 12 11
44 44 44 44 43 42 41 42 41 42 44 46 49 51 53 53 52 51 49 48 46 45 46 46 46 46 45 44 42 40 36 33 30 28 26 23 20 17 14 11 9 7 6
40 40 39 39 38 37 38 38 39 41 43 47 48 49 49 48 47 46 44 43 43 43 44 43 42 41 39 37 34 30 27 25 24 22 19 16 13 11 8 6 5 5 5
35 34 33 32 32 33 34 35 37 40 42 43 43 44 43 42 42 42 42 42 41 40 39 38 36 34 32 29 26 23 22 20 18 15 12 10 8 6 5 5 6 6 6
29 28 27 28 29 30 32 34 36 37 37 37 37 37 37 38 39 39 39 38 37 35 34 32 30 27 25 22 21 19 17 15 12 9 7 6 5 5 6 7 7 7 7
24 24 24 25 26 28 30 30 30 30 31 32 33 34 35 36 36 36 35 34 32 30 28 26 24 22 20 18 17 16 13 10 7 5 4 4 5 7 7 7 8 8 8
19 19 20 21 23 23 24 25 27 28 29 31 32 33 34 34 33 32 31 28 26 24 23 21 20 18 17 15 14 11 8 6 4 3 4 6 7 7 7 8 8 8 8
16 17 17 18 19 20 22 24 26 28 29 31 32 32 32 31 29 27 25 23 22 20 19 18 17 15 14 12 10 6 4 3 3 5 6 7 8 8 8 8 8 8 8

GEFSMW_500_meanwind_048.txt.gz
Wind_Speed
33 35 36 36 34 33 33 31 32 32 33 34 33 32 31 31 31 31 32 33 34 34 33 34 34 35 35 35 37 38 41 43 44 44 45 46 48 49 51 53 54 56 57
36 36 37 37 36 35 34 33 33 34 36 37 36 35 34 34 34 35 35 35 36 36 36 37 37 37 37 38 39 41 43 44 44 45 46 47 49 51 53 54 56 58 59
37 37 38 37 36 35 35 36 36 37 39 39 38 37 37 37 37 37 37 37 38 39 39 38 38 38 39 40 41 42 43 45 45 46 48 49 50 52 54 56 57 58 60
36 37 36 34 34 35 36 38 39 39 39 40 39 38 37 37 38 38 38 39 40 39 41 41 40 40 41 42 43 44 44 45 47 49 50 52 53 53 54 56 58 59 60
36 34 32 32 33 35 37 39 40 40 39 39 39 38 38 38 39 40 40 41 40 41 42 42 43 43 44 44 45 46 46 48 50 51 53 55 55 56 56 56 58 60 61
34 31 30 31 33 36 39 40 40 41 40 40 40 40 40 39 39 40 41 42 43 44 44 44 44 45 46 46 47 48 49 51 53 54 55 57 58 59 59 58 59 60 61
30 29 30 32 35 38 40 41 42 42 40 40 41 41 41 42 42 43 44 44 45 45 45 46 47 47 48 49 50 51 53 55 56 57 58 59 60 60 60 60 60 59 61
27 29 31 34 37 39 41 41 42 41 40 40 41 42 43 45 45 46 46 47 47 47 48 48 49 50 50 51 52 54 56 57 58 59 60 61 62 60 61 62 62 62 62
28 31 34 37 40 42 42 40 40 40 39 39 40 42 45 46 48 49 49 50 50 51 51 51 51 52 53 54 56 57 58 59 60 61 62 61 61 61 62 63 64 65 65
32 34 38 40 42 42 42 44 43 39 37 39 41 43 46 49 50 51 52 52 53 54 54 55 55 56 57 58 58 59 59 59 60 61 61 61 61 61 61 62 64 66 67
36 37 39 41 42 43 43 43 41 40 39 39 42 45 48 50 52 53 54 55 56 57 58 58 58 58 59 59 59 59 60 60 61 61 60 59 60 60 60 62 64 66 68
37 39 40 41 43 43 44 44 43 41 41 43 46 48 50 52 54 55 56 57 58 59 60 60 59 59 59 59 59 59 59 59 60 60 59 59 59 59 60 62 64 66 69
40 41 41 43 44 45 45 46 47 47 47 48 50 52 53 54 55 57 58 59 59 60 60 59 58 58 59 59 59 58 59 60 60 59 58 58 57 58 60 62 64 65 65
42 41 42 43 45 47 49 51 53 53 53 53 54 54 54 54 55 57 57 57 58 58 57 57 57 57 57 58 58 58 59 59 58 57 57 57 58 59 60 60 60 59 56
43 43 44 47 51 54 55 57 57 56 56 55 54 54 54 54 54 55 55 55 56 56 56 56 55 56 57 57 58 58 58 57 56 55 55 56 57 57 57 56 53 50 45
46 48 52 54 56 56 57 57 57 57 56 55 55 54 53 52 52 53 53 54 53 53 54 54 55 56 57 57 57 57 55 53 53 53 53 54 54 53 51 48 44 39 34
52 55 56 56 56 57 56 56 56 55 55 54 53 51 50 49 50 50 51 51 51 52 53 54 55 56 55 54 53 51 50 50 50 50 50 49 48 45 41 37 33 28 24
54 54 54 55 54 54 54 54 53 53 52 50 48 47 46 46 47 47 48 49 51 52 53 53 53 52 50 49 48 48 48 47 47 46 44 41 38 35 30 27 23 20 18
52 52 52 52 52 51 51 50 49 48 46 44 43 42 43 44 45 47 48 49 50 50 50 49 48 46 45 45 44 44 43 42 41 39 36 33 29 26 22 18 16 14 13
49 49 49 49 48 47 45 44 43 41 40 39 39 40 41 42 44 45 46 47 47 46 45 44 43 43 42 41 40 38 38 37 35 33 29 25 22 18 14 11 10 10 9
45 45 44 43 42 41 40 39 37 37 37 37 37 39 40 42 43 43 43 42 42 42 42 41 40 39 38 36 34 33 32 30 28 25 22 18 14 10 8 7 7 7 7
41 40 39 38 37 36 35 34 34 34 34 35 36 37 38 39 39 40 40 40 40 39 39 37 36 34 32 31 29 27 25 23 20 17 14 10 7 5 5 5 5 5 6
35 34 33 32 32 31 30 31 31 32 32 33 34 35 36 38 38 38 38 37 36 35 33 32 30 29 27 25 24 22 19 16 13 10 7 5 3 3 4 4 5 6 7
28 27 27 26 26 26 27 27 28 29 31 33 34 35 36 37 37 36 35 33 31 29 27 26 24 23 22 20 18 16 12 9 7 4 2 1 2 3 4 5 6 7 8
22 22 22 23 23 24 25 26 27 29 31 32 33 34 34 34 33 31 30 28 26 23 22 20 19 18 17 15 13 10 7 4 1 1 2 3 4 4 5 6 6 7 8
18 19 20 20 21 22 24 26 28 30 31 32 32 32 31 30 29 27 24 22 20 19 17 16 15 14 12 10 7 4 1 1 2 4 5 5 5 6 6 6 7 8 9

GEFSMW_500_meanwind_054.txt.gz
Wind_Speed
26 25 24 22 22 21 22 24 26 27 29 31 32 33 34 33 32 32 29 29 28 29 30 30 30 31 32 31 31 31 33 33 35 37 38 39 41 43 44 44 45 47 48
28 27 26 24 23 23 23 25 27 29 31 33 34 37 35 33 33 32 30 28 28 29 29 29 30 32 33 34 34 35 35 35 36 38 39 41 43 44 45 46 47 49 50
29 28 28 26 25 25 25 27 28 31 33 35 37 39 38 36 34 30 28 28 28 28 29 30 31 32 34 35 36 37 37 38 39 40 42 44 45 47 47 48 50 52 53
30 30 29 28 27 27 28 30 32 34 36 38 39 40 39 38 34 30 27 25 27 28 29 30 32 34 36 38 39 40 40 41 42 43 44 46 47 49 50 51 53 55 57
32 31 31 30 30 30 32 33 35 37 40 41 42 41 38 38 35 30 27 26 28 29 31 32 34 37 38 40 41 43 44 45 46 46 48 49 51 52 54 55 56 58 60
34 33 32 32 33 34 35 37 38 40 41 43 42 42 40 37 35 32 31 31 32 33 34 35 38 40 42 44 46 47 47 48 50 51 52 53 55 56 58 58 58 59 60
35 35 34 34 35 35 36 37 38 40 41 43 42 42 39 38 36 36 34 35 35 37 38 40 43 44 46 48 50 51 52 53 54 56 57 58 59 60 61 61 61 61 60
32 32 32 31 32 33 34 36 38 39 41 42 41 41 41 39 39 39 40 40 41 42 44 46 48 50 51 52 54 55 55 56 58 59 60 62 62 62 62 62 62 61 61
30 30 30 30 30 31 33 35 37 38 40 41 41 42 42 43 43 44 46 46 47 48 49 51 53 55 56 56 57 58 59 60 61 62 62 62 62 62 62 62 62 62 60
30 30 30 31 32 33 35 36 37 39 41 42 44 45 46 47 48 49 50 50 51 52 54 56 57 58 59 58 59 60 60 61 61 61 61 61 61 61 61 60 62 62 61
31 32 32 33 34 36 37 39 40 41 43 45 46 48 49 50 50 51 52 53 54 55 57 58 58 59 59 60 60 60 61 61 61 61 61 61 60 60 60 61 61 61 61
35 35 35 36 37 38 39 41 43 44 46 47 49 51 52 52 54 55 56 58 58 58 58 59 59 59 59 60 60 60 60 60 60 59 59 59 59 59 60 60 60 60 61
36 37 38 39 40 41 43 45 46 47 49 50 52 54 55 56 58 59 59 60 59 59 59 58 58 59 59 59 58 58 58 58 57 57 58 58 58 58 59 59 59 59 60
39 41 41 42 43 45 47 48 49 51 53 55 56 57 58 58 60 60 60 59 59 59 58 57 57 58 57 57 56 55 55 55 55 56 56 57 56 56 57 56 56 56 55
42 42 44 45 47 48 49 51 52 54 55 56 57 58 59 59 59 59 59 58 58 57 56 56 56 56 55 55 54 53 54 54 55 55 55 55 54 54 53 52 52 50 48
44 45 45 47 49 51 52 53 54 55 56 57 57 58 57 57 57 57 57 56 55 54 53 53 53 53 52 53 53 53 52 52 52 52 52 51 50 49 49 48 46 44 40
43 45 46 48 49 51 54 55 55 55 55 55 55 55 55 55 54 54 53 52 51 50 50 50 50 50 50 50 51 51 51 50 49 48 47 47 45 44 43 42 39 36 31
45 46 47 49 51 52 52 53 53 53 53 53 52 52 51 51 51 50 49 48 48 48 49 49 49 50 50 49 48 48 47 46 46 45 43 42 40 38 36 33 30 27 23
43 45 47 48 50 50 51 51 51 50 50 49 49 48 47 47 47 46 46 46 46 47 47 48 48 48 47 46 46 45 45 44 42 40 38 35 33 31 27 25 22 19 16
43 44 45 46 47 48 48 48 47 46 46 45 44 44 44 43 43 44 44 44 45 46 46 46 46 46 45 44 43 41 40 38 36 34 31 28 25 22 20 16 14 12 11
41 42 43 43 44 44 44 43 42 42 41 40 40 40 41 41 41 42 43 44 45 45 45 44 43 42 40 39 37 35 33 31 28 26 23 20 17 15 12 10 8 8 9
38 38 39 40 39 39 38 37 37 36 36 36 37 37 38 39 40 41 42 43 43 42 41 40 38 36 34 32 30 28 25 23 21 19 16 13 11 9 7 6 6 7 9
34 34 34 34 34 33 33 33 33 33 34 34 35 37 38 39 40 40 41 40 39 38 36 34 32 29 26 24 22 20 18 16 14 12 10 8 6 4 3 4 5 7 8
29 29 29 28 28 29 29 30 30 31 33 34 35 37 38 39 39 39 38 36 34 32 29 26 24 21 20 18 16 14 12 10 8 6 4 3 2 2 3 4 5 7 8
24 24 24 24 25 25 26 27 29 31 33 35 36 37 37 37 35 34 32 29 27 24 22 19 17 16 14 13 11 8 6 4 3 1 1 2 3 4 4 5 6 8 9
19 20 20 21 22 23 25 27 30 32 34 35 35 34 33 31 29 27 25 22 20 18 16 14 12 11 9 8 5 3 2 2 3 4 5 5 5 6 6 7 8 9 10

GEFSMW_500_meanwind_060.txt.gz
Wind_Speed
24 25 25 26 27 26 26 26 25 25 25 26 28 29 31 33 34 35 36 36 36 35 34 35 36 35 35 34 32 30 30 30 30 32 32 32 33 34 35 37 38 40 42
28 28 28 28 28 28 28 28 28 28 28 29 30 31 33 34 37 39 39 38 36 32 32 31 31 32 32 31 29 28 27 27 29 31 33 34 35 36 37 39 41 42 44
32 31 31 31 30 29 29 30 30 31 31 32 32 34 35 36 38 38 39 37 34 33 31 30 28 26 26 26 26 26 27 29 31 33 35 37 38 38 40 42 44 45 47
35 34 33 32 31 31 31 32 32 33 34 34 34 35 37 38 39 40 38 36 33 32 29 26 24 24 25 26 27 28 29 32 34 36 38 40 42 44 47 47 48 49 51
36 35 34 33 32 32 32 33 34 35 35 36 37 38 39 39 39 39 38 36 34 33 31 28 26 28 29 30 31 33 35 37 39 40 42 44 46 48 50 51 53 54 55
35 34 34 33 33 33 34 35 36 37 37 38 38 39 39 39 40 40 39 38 37 35 33 32 31 32 34 35 36 37 39 41 43 45 46 48 49 51 53 55 56 58 59
33 33 33 33 33 33 34 34 36 37 37 38 39 39 39 40 41 40 40 39 38 37 37 36 36 36 37 39 41 42 44 45 47 48 49 51 53 54 56 57 59 60 60
30 30 29 29 30 31 32 33 35 36 37 38 39 39 40 41 41 41 41 41 41 41 41 40 41 41 42 44 45 46 48 49 50 51 52 54 55 56 57 58 60 61 61
26 26 26 26 27 29 31 33 34 36 37 38 39 40 41 42 42 42 44 44 44 44 45 45 45 45 46 47 48 49 51 51 52 53 55 56 57 58 58 59 60 61 60
25 25 26 27 27 29 31 32 34 36 37 39 40 41 43 43 43 44 45 46 46 47 48 48 49 50 51 52 52 52 53 54 55 55 56 56 57 57 57 57 58 59 59
25 25 27 28 29 30 32 34 35 37 38 40 42 43 44 44 45 47 48 48 49 50 51 52 52 53 53 54 54 54 54 55 55 55 55 55 55 55 56 56 57 58 58
25 27 29 30 31 33 34 36 37 39 40 42 44 45 46 47 49 50 51 52 53 53 54 54 54 55 55 55 55 55 54 54 54 54 54 54 54 54 54 55 55 56 56
29 30 31 32 34 35 36 38 39 41 43 44 45 47 48 50 51 53 54 55 55 55 55 55 55 55 55 55 54 54 53 53 52 52 52 52 52 53 53 53 53 53 53
32 34 35 36 37 39 40 41 42 44 45 46 47 49 50 52 53 54 55 56 56 56 56 56 55 55 54 53 53 52 52 51 51 51 51 51 51 51 51 51 50 50 50
35 37 38 39 41 42 43 44 45 46 47 48 49 51 52 53 54 54 55 55 55 55 55 55 54 54 53 52 51 50 50 49 49 49 50 50 50 49 49 48 47 47 47
37 38 39 40 42 42 43 44 44 45 47 49 50 51 51 52 53 53 54 54 54 54 54 53 53 52 51 50 49 48 48 48 48 49 49 48 47 46 46 45 44 43 41
39 40 40 41 41 42 42 44 45 47 48 49 49 49 50 51 52 52 52 53 52 52 51 51 50 49 49 49 49 49 49 48 48 48 47 46 45 44 43 41 39 37 34
37 38 39 40 40 41 42 44 45 46 47 47 48 48 49 49 50 50 50 49 49 49 48 48 48 49 49 49 49 48 48 47 47 46 44 43 41 40 37 34 32 30 27
37 37 38 39 39 41 42 43 44 45 46 46 46 46 46 47 47 47 46 46 46 47 47 47 47 48 48 48 48 48 47 45 43 41 39 37 35 32 30 28 26 24 21
35 36 37 37 39 40 41 42 43 43 43 43 44 44 44 44 44 44 44 44 45 45 46 46 47 47 47 46 45 44 42 39 37 35 32 29 27 25 24 22 19 17 15
33 34 35 36 37 38 39 40 40 40 41 41 41 41 42 42 42 42 43 43 44 44 45 45 45 45 44 42 39 37 34 32 29 27 24 22 20 18 16 14 12 11 11
31 32 34 35 35 36 36 37 38 38 38 38 38 39 39 40 41 41 42 42 43 43 42 42 41 39 36 33 30 27 25 23 21 19 17 15 13 12 10 9 8 8 8
30 31 32 32 32 33 33 34 34 35 35 35 36 37 39 39 40 40 40 40 39 38 37 35 32 29 26 23 21 19 17 16 14 12 10 9 7 6 5 5 4 5 6
27 28 28 29 29 30 31 31 31 32 33 35 36 37 38 38 38 37 36 34 33 30 28 26 23 20 18 16 15 14 12 10 8 7 5 4 3 2 2 2 4 5 6
24 25 25 26 26 27 28 29 30 32 33 35 35 36 35 34 31 30 28 27 25 23 20 18 16 14 13 11 10 8 6 5 3 1 0 1 2 3 3 4 5 6 6
21 21 22 22 23 25 27 29 31 31 31 32 31 30 28 26 24 23 21 20 18 16 14 12 11 9 8 6 5 3 1 1 2 3 4 4 5 5 6 6 6 7 8